軌道要素
Epoch 2005 Nov. 6.0 TT = JDT 2453680.5
T 2005 Nov. 2.46890 TT MPC
q 1.4257822 (2000.0) P Q
n 0.14236259 Peri. 13.87138 +0.98259728 -0.18435098
a 3.6324986 Node 356.50305 +0.11382568 +0.69436126
e 0.6074927 Incl. 21.89371 +0.14678659 +0.69561279
P 6.92
From 264 observations 1998 Nov. 21-2012 July 29, mean residual 0".8.
Nongravitational parameters A1 = +1.95, A2 = +0.2378.
|